Regional Weather Roundup
Issued by NWS

Home | Current Version | Previous Version | Graphics & Text | Print | Product List | Glossary On
Versions: 1 2 3 4 5 6 7 8 9 10 11 12 13 14 15 16 17 18 19 20 21 22 23 24 25 26 27 28 29 30 31 32 33 34 35 36 37 38 39 40 41 42 43 44 45 46 47 48 49 50
000
ASUS43 KMKX 020100
RWRWI

WISCONSIN REGIONAL WEATHER ROUNDUP
NATIONAL WEATHER SERVICE MILWAUKEE/SULLIVAN WI
800 PM CDT MON SEP 01 2014

NOTE: "FAIR" INDICATES FEW OR NO CLOUDS BELOW 12,000 FEET WITH NO
SIGNIFICANT WEATHER AND/OR OBSTRUCTIONS TO VISIBILITY.

WIZ001-002-006>008-014>016-023>028-020200-
NORTHWEST WISCONSIN

CITY           SKY/WX    TMP DP  RH WIND       PRES   REMARKS
SUPERIOR ARPT  CLEAR     64  55  71 SW3       29.71R
ASHLAND        CLEAR     60  56  86 SW6       29.72R
HAYWARD        CLEAR     63  58  83 SW3       29.75R
SIREN          CLEAR     63  57  81 SW3       29.76R
RICE LAKE      CLEAR     65  55  70 CALM      29.77R
LADYSMITH      PTCLDY    65  54  66 W5        29.78R
EAU CLAIRE     NOT AVBL
MENOMONIE      PTCLDY    71  56  60 W5        29.77R
NEW RICHMOND   CLEAR     66  57  73 W3        29.78R
OSCEOLA        CLEAR     67  59  74 W3        29.79R
$$

WIZ003>005-009-010-017-018-020200-
NORTH CENTRAL WISCONSIN

CITY           SKY/WX    TMP DP  RH WIND       PRES   REMARKS
WOODRUFF       CLEAR     63  57  79 W3        29.74R
RHINELANDER    PTCLDY    60  55  83 W5        29.76R
EAGLE RIVER    CLEAR     63  54  72 W5        29.73R
LAND O LAKES   CLEAR     63  56  77 W3        29.74R
PHILLIPS       CLEAR     65  56  74 W3        29.75R
TOMAHAWK       CLEAR     63  56  78 CALM      29.76R
MEDFORD        PTCLDY    62  55  78 W3        29.76S
MERRILL        CLEAR     64  57  76 W7        29.75R
$$

WIZ029-030-035-036-043>047-020200-
CENTRAL WISCONSIN

CITY           SKY/WX    TMP DP  RH WIND       PRES   REMARKS
WAUSAU         CLEAR     66  58  75 W6        29.75R
MOSINEE        PTCLDY    63  59  88 W7        29.78R
MARSHFIELD     CLEAR     65  58  78 W7        29.78R
STEVENS POINT  CLEAR     67  57  68 SW3       29.77R
WAUPACA        CLEAR     70  61  74 W5        29.76R
WAUTOMA        NOT AVBL
WISC RAPIDS    CLEAR     67  59  75 W5        29.79R
CAMP DOUGLAS   NOT AVBL
$$

WIZ011>013-019>022-031-037>040-048>050-020200-
NORTHEAST WISCONSIN

CITY           SKY/WX    TMP DP  RH WIND       PRES   REMARKS
ANTIGO         CLEAR     63  56  76 W8        29.75R
STURGEON BAY   PTCLDY    68  61  77 W3        29.72R
GREEN BAY      CLEAR     70  63  78 SW6       29.73R
MANITOWOC      NOT AVBL
APPLETON       PTCLDY    70  64  83 W7        29.75R
CLINTONVILLE   CLEAR     70  61  73 W5        29.74R
OSHKOSH        CLEAR     68  64  87 VRB5      29.76R
$$

WIZ032>034-041-042-053>061-020200-
SOUTHWEST WISCONSIN

CITY           SKY/WX    TMP DP  RH WIND       PRES   REMARKS
LA CROSSE      CLEAR     71  60  68 W5        29.78R
SPARTA         CLEAR     68  60  75 CALM      29.79R
VIROQUA        FAIR      67  60  78 W3        29.81R
BOSCOBEL       CLEAR     70  64  81 CALM      29.80R
PRAIRIE DU CHI CLEAR     71  59  65 CALM      29.79S
PLATTEVILLE    FAIR      69  64  83 CALM      29.82R
$$

WIZ056-057-062-063-064-067-068-020200-
SOUTH CENTRAL WISCONSIN

CITY           SKY/WX    TMP DP  RH WIND       PRES   REMARKS
BARABOO/DELLS  CLEAR     69  61  76 CALM      29.79R
LONE ROCK      NOT AVBL
WATERTOWN      MOCLDY    69  65  85 W6        29.78S
MADISON        PTCLDY    67  65  93 CALM      29.79R
MIDDLETON      FAIR      69  64  84 W7        29.80R
MONROE         CLEAR     72  66  83 W9        29.80S
JANESVILLE     NOT AVBL
$$

WIZ051-052-058>065-066-070>072-020200-
SOUTHEAST WISCONSIN

CITY           SKY/WX    TMP DP  RH WIND       PRES   REMARKS
MILWAUKEE      MOCLDY    71  64  78 SW8       29.77S
WAUKESHA       CLEAR     68  63  83 W5        29.80R
MILWAUKEE/TIMM PTCLDY    72  63  73 SW5       29.78R
RACINE         LGT RAIN  70  66  87 SW6       29.79R FOG
BURLINGTON     PTCLDY    68  66  93 CALM      29.79R
KENOSHA        CLOUDY    72  66  81 NW6       29.79R
FOND DU LAC    CLEAR     66  61  84 SW6       29.77R
SHEBOYGAN      CLEAR     67  61  81 W7        29.76R
WEST BEND      CLEAR     68  61  77 W7        29.77R
JUNEAU         PTCLDY    66  63  92 SW6       29.79R
$$

LSZ147-162-020200-
LAKE SUPERIOR

STATION/POSITION TIME  TEMP    WIND        PRES    WAVE
                       AIR SEA DIR/SP/G            HT/PER
                 (UTC) (F)     (DEG/KT/KT) (MB)    (FT/S)
W MID LAKE BUOY  2350   62 57  250/ 14/ 16 1003.3R   3/ 5
DEVILS ISLAND    0000   65     250/ 14/ 17 1004.4R
PORT WING        0000   68     260/  9/ 13 1005.8
SAXON HARBOR     0000   67      CALM  /  3 1005.4R
$$

LMZ867-665-643>646-020200-
LAKE MICHIGAN

STATION/POSITION TIME  TEMP    WIND        PRES    WAVE
                       AIR SEA DIR/SP/G            HT/PER
                 (UTC) (F)     (DEG/KT/KT) (MB)    (FT/S)
N MID LAKE BUOY  2350   67 65  220/ 14/ 16 1004.2R   2/ 6
NORTHPORT PIER   0000   70     260/  3/  4 1004.7R
KEWAUNEE LAKESHO 0000   74     240/  4/  6 1004.9R
SHEBOYGAN LAKESH 0000   76 56  240/ 12/ 15 1006.7R
ATWATER BUOY     0000   72     240/ 12/ 14 1008.4R
MILWAUKEE LAKESH 0000   77     260/ 12/ 15   N/A
S MID LAKE BUOY  2350   73 70  230/  8/ 10 1007.4R   2/ 4
KENOSHA   LAKESH 0000   80     230/ 10/ 17 1007.1R
$$

TC  - TEMPERATURE IN CELSIUS
VSB - VISIBILITY IN STATUTE MILES
WCI - WIND CHILL INDEX
HX  - HEAT INDEX



USA.gov is the U.S. government's official web portal to all federal, state and local government web resources and services.